Simultaneous Nadir Overpasses (SNOs) Predictions

Prediction of SNOs between LANDSAT-8 and TERRA Satellite Orbit:

Table of predicted SNOs for the next 14.0 days since TLE Epoch: 3/30/2024
Index Date (LANDSAT-8) Time (LANDSAT-8) Lat,Lon (LANDSAT-8) SZA (LANDSAT-8 ) Date (TERRA) Time (TERRA) Lat,Lon (TERRA) SZA (TERRA ) Distance(km) Time Diff (sec)
1 04/05/2024 19:26:40 -81.79, 138.57 99.30 04/05/2024 19:27:52 -81.79, 138.40 99.28 2.67 72
2 04/05/2024 20:16:06 81.79, -53.60 80.72 04/05/2024 20:17:13 81.78, -53.57 80.76 0.57 67
3 04/05/2024 21:05:33 -81.79, 113.86 99.32 04/05/2024 21:06:34 -81.78, 114.05 99.26 3.05 61
4 04/05/2024 21:54:59 81.79, -78.30 80.70 04/05/2024 21:55:56 81.79, -78.34 80.72 0.55 57
5 04/05/2024 22:44:26 -81.79, 89.16 99.34 04/05/2024 22:45:17 -81.79, 89.29 99.30 2.00 51
6 04/05/2024 23:33:52 81.78,-103.01 80.67 04/05/2024 23:34:39 81.79,-103.10 80.69 1.58 47
7 04/06/2024 00:23:19 -81.79, 64.46 99.37 04/06/2024 00:24:00 -81.79, 64.52 99.33 0.99 41
8 04/06/2024 01:12:45 81.78,-127.71 80.65 04/06/2024 01:13:22 81.79,-127.87 80.65 2.63 37
9 04/06/2024 02:02:11 -81.78, 40.18 99.33 04/06/2024 02:02:42 -81.78, 40.17 99.32 0.19 31
10 04/06/2024 02:51:38 81.78,-152.41 80.63 04/06/2024 02:52:04 81.78,-152.22 80.67 3.13 26
11 04/06/2024 03:41:04 -81.78, 15.47 99.36 04/06/2024 03:41:25 -81.78, 15.40 99.35 1.14 21
12 04/06/2024 04:30:31 81.78,-177.12 80.61 04/06/2024 04:30:47 81.78,-176.99 80.63 2.10 16
13 04/06/2024 05:19:57 -81.78, -9.23 99.38 04/06/2024 05:20:08 -81.78, -9.36 99.39 2.20 11
14 04/06/2024 06:09:23 81.78, 158.60 80.64 04/06/2024 06:09:29 81.77, 158.66 80.65 1.06 6
15 04/06/2024 06:58:49 -81.77, -33.51 99.35 04/06/2024 06:58:50 -81.77, -33.71 99.37 3.24 1
16 04/06/2024 07:48:16 81.78, 133.90 80.61 04/06/2024 07:48:12 81.78, 133.90 80.61 0.02 4
17 04/06/2024 08:37:43 -81.78, -58.64 99.43 04/06/2024 08:37:33 -81.78, -58.48 99.41 2.47 10
18 04/06/2024 09:27:09 81.77, 109.19 80.59 04/06/2024 09:26:55 81.78, 109.13 80.58 1.05 14
19 04/06/2024 10:16:35 -81.77, -82.92 99.39 04/06/2024 10:16:15 -81.77, -82.83 99.40 1.44 20
20 04/06/2024 11:06:01 81.77, 84.91 80.62 04/06/2024 11:05:37 81.77, 84.78 80.59 2.09 24
21 04/06/2024 11:55:28 -81.77,-107.62 99.42 04/06/2024 11:54:58 -81.77,-107.60 99.43 0.38 30
22 04/06/2024 12:44:54 81.77, 60.20 80.60 04/06/2024 12:44:20 81.77, 60.01 80.56 3.12 34
23 04/06/2024 13:34:21 -81.77,-132.33 99.44 04/06/2024 13:33:41 -81.77,-132.37 99.47 0.69 40
24 04/06/2024 14:23:47 81.77, 35.50 80.58 04/06/2024 14:23:02 81.76, 35.66 80.57 2.63 45
25 04/06/2024 15:13:13 -81.76,-156.61 99.41 04/06/2024 15:12:23 -81.76,-156.72 99.45 1.74 50
26 04/06/2024 16:02:40 81.76, 10.79 80.55 04/06/2024 16:01:45 81.76, 10.89 80.54 1.58 55
27 04/06/2024 16:52:06 -81.76, 178.68 99.43 04/06/2024 16:51:06 -81.76, 178.51 99.49 2.78 60
28 04/06/2024 17:41:33 81.76, -13.91 80.53 04/06/2024 17:40:28 81.77, -13.88 80.50 0.55 65



Historial Predications of SNOs between LANDSAT-8 and TERRA
